Zurück zum Katalog

NANCHANG HANGKONG 2

AktivWissenschaftSSO
NORAD 64051·PAYLOAD·🇨🇳 China
Dieser Satellitenname wurde noch nicht durch offizielle Quellen bestätigt.

Gestartet May 17, 2025 von Jiuquan Satellite Launch Center

Loading…

Nächste Überflüge (nächste 24 Stunden)

TLE

AktuellSource: Space-Track

Epoche: Sep 14, 2026, 12:51 UTC

1 64051U 25103D   26257.53542296  .00003197  00000-0  15347-3 0  9998
2 64051  97.3748 326.6371 0002850 318.9824  41.1196 15.19564303 73564

Verfolge NANCHANG HANGKONG 2 in Echtzeit mit AllMySat

Download on the App Store